Location: Unspecified
(0.0000°N, 0.0000°E)
Time: 19:08:55
(UTC+00:00)

Tiros 1 - Visible Passes

Search period start: 27 June 2017 00:00
Search period end: 07 July 2017 00:00
Orbit: 630 x 665 km, 48.4° (Epoch: 26 June)

Date Brightness Start Highest point End Pass type
(mag) Time Alt. Az. Time Alt. Az. Time Alt. Az.
27 Jun 7.3 19:17:26 10° NNW 19:22:04 55° NE 19:23:35 37° ESE visible
28 Jun 8.0 19:43:45 10° WNW 19:48:12 42° SW 19:49:14 36° SSW visible
29 Jun 7.6 18:27:46 10° NNW 18:32:21 49° NE 18:36:54 10° SE visible
29 Jun 9.6 20:12:12 10° WSW 20:14:25 13° SW 20:14:54 13° SW visible
30 Jun 8.0 18:53:56 10° NW 18:58:30 47° SW 19:02:52 11° SSE visible
01 Jul 9.1 05:25:43 10° S 05:29:27 24° SE 05:33:13 10° ENE visible
01 Jul 9.6 19:22:01 10° W 19:24:42 15° SW 19:27:21 10° SSW visible
03 Jul 9.2 04:36:36 12° S 04:39:45 21° SE 04:43:16 10° E visible
03 Jul 9.6 18:31:56 10° W 18:34:58 17° SW 18:37:59 10° S visible
04 Jul 7.3 05:02:17 16° SSW 05:05:54 71° SE 05:10:33 10° NE visible
05 Jul 9.3 03:50:16 19° SE 03:50:16 19° SE 03:53:18 10° E visible
05 Jul 8.1 05:27:58 10° WSW 05:32:03 32° NW 05:36:14 10° NNE visible
06 Jul 7.3 04:15:55 61° SSE 04:16:12 63° SE 04:20:48 10° NE visible
